Location: Unspecified
(0.0000°N, 0.0000°E)
Time: 02:37:48
(UTC+00:00)

N. Korean satellite - Pass Details

Date: 25 February 2021
Orbit: 451 x 503 km, 97.2° (Epoch: 24 February)

Event Time Altitude Azimuth Distance (km) Brightness Sun altitude
Rises 05:09:07 0° 6° (N) 2,515 10.2 -15.8°
Reaches altitude 10° 05:11:10 10° 2° (N) 1,649 9.2 -15.3°
Maximum altitude 05:14:41 63° 281° (W) 545 6.5 -14.4°
Drops below altitude 10° 05:18:16 10° 199° (SSW) 1,685 9.2 -13.5°
Sets 05:20:23 0° 196° (SSW) 2,577 10.2 -13.0°
